Coolangatta, Queensland

12:55 PM AEST on September 30, 2016 (GMT +1000)
Coolangatta

Weather History for YBCG - September, 2013

Change the Weather History Date:

Friday, September 13, 2013

  Actual Average (YBBN) Record (YBBN)
Temperature  
Mean Temperature 67 °F -  
Max Temperature 75 °F 72 °F 89 °F (2003)
Min Temperature 59 °F 52 °F 48 °F (1996)
Cooling Degree Days 2    
Growing Degree Days 17 (Base 50)    
Moisture  
Dew Point 58 °F    
Average Humidity 72    
Maximum Humidity 100    
Minimum Humidity 54    
Precipitation  
Precipitation 0.00 in - - ()
Sea Level Pressure  
Sea Level Pressure 30.03 in    
Wind  
Wind Speed 8 mph ()    
Max Wind Speed 23 mph    
Max Gust Speed 31 mph    
Visibility 6.0 miles    
Events      
Averages and records for this station are not official NWS values.
T = Trace of Precipitation, MM = Missing Value Source: Averaged Metar Reports

Daily Weather History Graph

Daily Weather History Graph

Search for Another Location

Airport or City:

Trip Planner

Search our weather history database for the weather conditions in past years. The results will help you decide how hot, cold, wet, or windy it might be!

Date:

Astronomy

Sep. 13, 2013 Rise Set
Actual Time 5:46 AM AEST 5:37 PM AEST
Civil Twilight 5:23 AM AEST 6:01 PM AEST
Nautical Twilight 4:55 AM AEST 6:28 PM AEST
Astronomical Twilight 4:28 AM AEST 6:55 PM AEST
Moon 11:12 AM AEST (9/13) 12:13 AM AEST (9/13)
Length of Visible Light 12h 38m
Length of Day
11h 51m
First Quarter, 54% of the Moon is Illuminated
Sep 13
First Quarter
Sep 19
Full
Sep 27
Last Quarter
Oct 5
New
Oct 12
First Quarter

Hourly Weather History & Observations

Time (AEST) Temp. Dew Point Humidity Pressure Visibility Wind Dir Wind Speed Gust Speed Precip Events Conditions
12:00 AM 60 °F 58 °F 93% 29.92 in 1 mi South 1.2 mph - -  
12:00 AM 60.8 °F 59.0 °F 94% 29.92 in 1.3 mi South 1.2 mph - N/A   Unknown
12:30 AM 60.8 °F 59.0 °F 94% 29.92 in 5.0 mi SW 3.5 mph - N/A   Unknown
1:00 AM 60.8 °F 60.8 °F 100% 29.92 in 5.0 mi SSW 3.5 mph - N/A   Unknown
1:30 AM 62.6 °F 60.8 °F 94% 29.92 in 6.2 mi WSW 5.8 mph - N/A   Unknown
2:00 AM 62.6 °F 60.8 °F 94% 29.92 in 6.2 mi SSW 6.9 mph - N/A   Unknown
2:30 AM 64.4 °F 60.8 °F 88% 29.92 in 6.2 mi SSW 6.9 mph - N/A   Unknown
3:00 AM 64 °F 60 °F 84% 29.93 in - South 4.6 mph - -  
3:00 AM 64.4 °F 60.8 °F 88% 29.92 in 6.2 mi South 4.6 mph - N/A   Unknown
3:30 AM 62.6 °F 60.8 °F 94% 29.95 in 6.2 mi North 2.3 mph - N/A   Unknown
4:00 AM 62.6 °F 60.8 °F 94% 29.95 in 6.2 mi Calm Calm - N/A   Unknown
4:30 AM 62.6 °F 60.8 °F 94% 29.95 in 6.2 mi South 4.6 mph - N/A   Scattered Clouds
5:00 AM 64.4 °F 60.8 °F 88% 29.95 in 6.2 mi South 5.8 mph - N/A   Scattered Clouds
5:30 AM 64.4 °F 60.8 °F 88% 29.98 in 6.2 mi West 4.6 mph - N/A   Mostly Cloudy
6:00 AM 64 °F 59 °F 79% 29.99 in - South 5.8 mph - -  
6:00 AM 64.4 °F 59.0 °F 83% 29.98 in 6.2 mi South 5.8 mph - N/A   Scattered Clouds
6:30 AM 64.4 °F 59.0 °F 83% 29.98 in 6.2 mi South 5.8 mph - N/A   Unknown
7:00 AM 66.2 °F 60.8 °F 83% 30.01 in 6.2 mi South 6.9 mph - N/A   Unknown
7:30 AM 68.0 °F 60.8 °F 78% 30.04 in 6.2 mi South 8.1 mph - N/A   Unknown
8:00 AM 69.8 °F 60.8 °F 73% 30.04 in 6.2 mi South 9.2 mph - N/A   Unknown
8:30 AM 71.6 °F 60.8 °F 69% 30.06 in 6.2 mi South 13.8 mph - N/A   Unknown
9:00 AM 71.6 °F 59.0 °F 64% 30.06 in 6.2 mi South 16.1 mph - N/A   Scattered Clouds
9:30 AM 71.6 °F 59.0 °F 64% 30.06 in 6.2 mi South 18.4 mph - N/A   Unknown
10:00 AM 73.4 °F 59.0 °F 61% 30.06 in 6.2 mi South 17.3 mph - N/A   Scattered Clouds
10:30 AM 73.4 °F 59.0 °F 61% 30.06 in 6.2 mi South 17.3 mph - N/A   Unknown
11:00 AM 75.2 °F 60.8 °F 61% 30.06 in 6.2 mi SE 23.0 mph - N/A   Scattered Clouds
11:30 AM 71.6 °F 59.0 °F 64% 30.06 in 6.2 mi SSE 23.0 mph - N/A   Scattered Clouds
12:00 PM 72 °F 60 °F 57% 30.06 in - SSE 17.3 mph - -  
12:00 PM 71.6 °F 60.8 °F 69% 30.04 in 6.2 mi SSE 17.3 mph - N/A   Scattered Clouds
12:14 PM 71.6 °F 59.0 °F 64% 30.04 in 6.2 mi SSE 18.4 mph 31.1 mph N/A   Scattered Clouds
12:30 PM 71.6 °F 57.2 °F 60% 30.04 in 6.2 mi SSE 18.4 mph - N/A   Scattered Clouds
1:00 PM 71.6 °F 57.2 °F 60% 30.04 in 6.2 mi SSE 16.1 mph - N/A   Mostly Cloudy
1:30 PM 69.8 °F 57.2 °F 64% 30.04 in 6.2 mi SSE 16.1 mph - N/A   Mostly Cloudy
2:00 PM 69.8 °F 55.4 °F 60% 30.04 in 6.2 mi SSE 17.3 mph - N/A   Scattered Clouds
2:30 PM 69.8 °F 57.2 °F 64% 30.04 in 6.2 mi SSE 16.1 mph - N/A   Scattered Clouds
3:00 PM 68 °F 55 °F 54% 30.04 in - SSE 15.0 mph - -   Overcast
3:00 PM 68.0 °F 55.4 °F 64% 30.04 in 6.2 mi SSE 15.0 mph - N/A   Mostly Cloudy
3:30 PM 68.0 °F 55.4 °F 64% 30.04 in 6.2 mi SE 13.8 mph - N/A   Overcast
4:00 PM 68.0 °F 55.4 °F 64% 30.04 in 6.2 mi SE 11.5 mph - N/A   Overcast
4:30 PM 68.0 °F 55.4 °F 64% 30.06 in 6.2 mi SE 13.8 mph - N/A   Overcast
5:00 PM 68.0 °F 55.4 °F 64% 30.06 in 6.2 mi SE 9.2 mph - N/A   Overcast
5:30 PM 68.0 °F 55.4 °F 64% 30.06 in 6.2 mi SE 11.5 mph - N/A   Mostly Cloudy
6:00 PM 67 °F 55 °F 56% 30.08 in - SE 10.4 mph - -  
6:00 PM 66.2 °F 55.4 °F 68% 30.06 in 6.2 mi SE 10.4 mph - N/A   Scattered Clouds
6:30 PM 66.2 °F 53.6 °F 64% 30.06 in 6.2 mi SE 10.4 mph - N/A   Scattered Clouds
7:00 PM 66.2 °F 53.6 °F 64% 30.06 in 6.2 mi ESE 9.2 mph - N/A   Scattered Clouds
7:30 PM 66.2 °F 53.6 °F 64% 30.06 in 6.2 mi ESE 10.4 mph - N/A   Mostly Cloudy
8:00 PM 66.2 °F 53.6 °F 64% 30.09 in 6.2 mi East 9.2 mph - N/A   Mostly Cloudy
8:30 PM 66.2 °F 53.6 °F 64% 30.09 in 6.2 mi SE 8.1 mph - N/A   Mostly Cloudy
9:00 PM 66 °F 54 °F 57% 30.13 in - SE 9.2 mph - -  
9:00 PM 66.2 °F 53.6 °F 64% 30.12 in 6.2 mi SE 9.2 mph - N/A   Scattered Clouds
9:30 PM 66.2 °F 55.4 °F 68% 30.15 in 6.2 mi South 6.9 mph - N/A   Mostly Cloudy
10:00 PM 66.2 °F 55.4 °F 68% 30.09 in 6.2 mi ENE 8.1 mph - N/A   Mostly Cloudy
10:30 PM 66.2 °F 55.4 °F 68% 30.09 in 6.2 mi SSE 3.5 mph - N/A   Mostly Cloudy
11:00 PM 68.0 °F 55.4 °F 64% 30.06 in 6.2 mi NNE 10.4 mph - N/A   Mostly Cloudy
11:30 PM 68.0 °F 55.4 °F 64% 30.06 in 6.2 mi NE 6.9 mph - N/A   Overcast